Home > Weather > Milan > Past weeks

Flag for Italy Weather for the Past 2 Weeks in Milan, Italy

Now
55 °F

Passing clouds.


Feels Like: 55 °F
Forecast: 45 / 76 °F
Wind: 3 mph from West

Location: Milan / Linate

Current Time: May 3, 2016 at 12:29:28 AM

Latest Report: May 2, 2016 at 11:50 PM


Visibility: N/A

Pressure: 29.95 "Hg

Humidity: 77%

Dew Point: 48 °F

Location of MilanLocation

Historic Weather in Milan — Graph

°F

Milan Temperature Yesterday

Maximum temperature yesterday: 63 °F (at 1:20 PM)
Minimum temperature yesterday: 50 °F (at 3:20 AM)
Average temperature yesterday: 57 °F

High & Low Weather Summary for the Past Weeks

 TemperatureHumidityPressure
High75 °F (Apr 22, 3:50 PM)94% (Apr 24, 4:50 AM)30.30 "Hg (Apr 24, 4:50 AM)
Low41 °F (Apr 25, 4:20 AM)13% (Apr 27, 3:50 PM)29.50 "Hg (Apr 24, 2:20 PM)
Average59 °F57%29.91 "Hg
* Reported Apr 17 10:20 PM — May 2 10:50 PM, Milan, Weather by CustomWeather, © 2016

Note: Actual official high and low records may vary slightly from our data, if they occured in-between our weather recording intervals... More about our weather records

Advertising

Milan Weather History for the Previous 24 Hours

Scroll right to see more
 ConditionsComfort  
Time TempWeatherWind HumidityBarometerVisibility
10:50 PM
Mon, May 2
57 °FPassing clouds.3 mph77%29.95 "HgN/A
10:20 PM59 °FPassing clouds.2 mph72%29.95 "HgN/A
9:50 PM61 °FPassing clouds.3 mph72%29.95 "HgN/A
9:20 PM61 °FPartly sunny.2 mph72%29.95 "HgN/A
8:50 PM63 °FPartly sunny.2 mph59%29.95 "HgN/A
8:20 PM63 °FPartly sunny.2 mph59%29.95 "HgN/A
7:50 PM63 °FPartly sunny.3 mph59%29.92 "HgN/A
7:20 PM63 °FPartly sunny.2 mph64%29.92 "HgN/A
6:50 PM63 °FPartly sunny.5 mph64%29.92 "HgN/A
6:20 PM63 °FPartly sunny.6 mph64%29.92 "HgN/A
5:50 PM63 °FPartly sunny.6 mph64%29.92 "HgN/A
5:20 PM63 °FPartly sunny.5 mph64%29.92 "HgN/A
4:50 PM63 °FPartly sunny.1 mph59%29.92 "HgN/A
4:20 PM63 °FPartly sunny.6 mph59%29.95 "HgN/A
3:50 PM63 °FScattered clouds.3 mph64%29.92 "HgN/A
3:20 PM63 °FScattered clouds.7 mph64%29.95 "HgN/A
2:50 PM63 °FScattered clouds.7 mph59%29.95 "HgN/A
2:20 PM63 °FScattered clouds.8 mph64%29.95 "HgN/A
1:50 PM63 °FPassing clouds.8 mph59%29.95 "HgN/A
1:20 PM63 °FPassing clouds.7 mph59%29.95 "HgN/A
12:50 PM61 °FPassing clouds.7 mph59%29.95 "HgN/A
12:20 PM61 °FPassing clouds.6 mph63%29.95 "Hg5 mi
11:50 AM59 °FPassing clouds.3 mph68%29.95 "Hg5 mi
11:20 AM57 °FPassing clouds.5 mph72%29.95 "Hg5 mi
10:50 AM57 °FPassing clouds.3 mph72%29.92 "Hg5 mi
10:20 AM55 °FScattered clouds.5 mph77%29.92 "Hg5 mi
9:50 AM54 °FScattered clouds.6 mph82%29.92 "Hg5 mi
9:20 AM54 °FScattered clouds.2 mph82%29.92 "Hg5 mi
8:50 AM54 °FPartly sunny.6 mph88%29.92 "Hg5 mi
8:20 AM52 °FPartly sunny.3 mph94%29.92 "Hg5 mi
6:50 AM50 °FPassing clouds.2 mph94%29.89 "Hg5 mi
6:20 AM50 °FPassing clouds.1 mph94%29.89 "HgN/A
5:50 AM50 °FPassing clouds.2 mph94%29.89 "HgN/A
5:20 AM50 °FPassing clouds.No wind94%29.89 "HgN/A
4:50 AM50 °FPassing clouds.2 mph94%29.89 "HgN/A
4:20 AM50 °FPassing clouds.3 mph94%29.89 "HgN/A
3:50 AM50 °FPassing clouds.2 mph94%29.92 "HgN/A
3:20 AM50 °FPassing clouds.2 mph94%29.92 "HgN/A
2:50 AM52 °FPassing clouds.3 mph88%29.92 "HgN/A
2:20 AM52 °FPassing clouds.3 mph88%29.92 "HgN/A
1:50 AM52 °FPassing clouds.3 mph88%29.92 "HgN/A
12:50 AM52 °FPassing clouds.3 mph88%29.95 "HgN/A
12:20 AM52 °FPassing clouds.2 mph88%29.95 "HgN/A
Weather by CustomWeather, © 2016

See weather overviewHow to use our weather pages